Temp
96 90 74 75 75 75 75 75 75 75 76 76 76 76 76 76 76 76 76 77 77 78 79 79 78 78 79 79 77 77 75 74 74 75 75 75 74 74 73 72 74 80 75
98 90 73 74 75 75 75 75 75 75 76 76 76 76 76 76 76 76 76 77 78 79 79 79 78 78 78 77 75 75 74 73 73 73 74 75 75 75 74 71 74 76 74
95 91 83 74 74 75 75 75 75 76 76 76 76 76 76 76 76 76 76 77 78 78 79 79 78 78 77 75 74 74 73 73 73 73 74 86 81 74 74 73 73 74 74
94 90 89 73 74 75 75 75 75 76 76 76 76 76 76 76 76 76 76 76 77 78 79 79 78 77 75 74 73 73 73 73 72 73 83 85 83 75 75 74 73 73 74
93 92 89 73 73 74 75 75 75 75 75 75 75 76 76 76 76 76 76 76 76 78 79 79 78 76 74 72 72 72 72 72 72 75 90 87 84 76 75 73 73 73 75
93 93 76 71 72 74 74 75 75 75 74 74 75 75 76 76 76 75 75 75 76 77 78 78 76 73 72 71 71 71 71 71 71 91 89 82 82 75 74 74 72 72 73
92 91 82 70 72 73 75 75 74 74 74 74 74 75 75 75 75 75 74 75 75 76 76 75 73 72 71 71 71 70 70 71 85 85 84 83 80 74 74 73 73 72 72
89 88 84 73 72 73 73 73 73 73 73 73 73 74 74 74 74 74 74 74 74 74 73 73 72 71 71 71 70 69 69 70 84 84 87 82 75 73 74 73 72 72 72
87 85 85 82 78 71 71 71 71 71 71 71 72 72 72 72 72 73 73 73 73 73 72 72 71 71 71 70 69 68 68 71 87 88 87 84 72 74 74 73 73 72 72
83 83 84 83 82 82 81 70 70 70 70 70 71 71 70 70 71 71 72 72 72 72 72 71 70 70 70 69 68 67 67 69 88 86 87 83 72 74 74 73 73 72 72
82 82 82 81 78 80 82 80 71 70 70 70 71 69 71 85 82 79 77 71 72 71 71 71 70 69 68 68 67 67 67 87 86 86 83 70 73 74 74 73 72 72 72
82 82 82 79 76 77 78 78 80 82 82 82 82 81 83 86 85 85 78 70 71 71 70 70 69 68 69 84 80 69 85 85 86 85 87 69 72 74 73 72 72 72 71
86 85 81 80 78 75 77 76 77 85 84 84 83 84 83 85 85 85 84 81 81 73 81 77 77 81 82 86 85 83 85 84 85 86 76 68 71 73 73 72 72 71 71
86 84 83 82 79 76 81 78 76 76 79 83 83 81 78 77 81 83 85 84 83 83 83 83 83 83 83 83 84 82 82 85 81 83 73 66 70 72 73 72 72 71 71
86 85 84 83 80 80 78 82 80 78 80 84 83 78 80 82 80 84 84 85 85 85 84 83 85 84 82 83 83 82 82 83 80 69 69 65 67 70 72 73 73 72 71
88 87 87 83 82 80 79 79 80 82 83 83 84 77 75 82 81 80 84 84 84 85 85 84 84 84 82 82 81 81 82 83 80 76 69 66 64 66 70 72 73 72 71
89 90 88 85 84 81 80 80 81 83 83 83 84 80 76 77 77 78 83 83 84 83 82 83 82 82 83 82 80 81 82 82 80 74 74 69 66 62 66 69 70 71 71
87 86 88 88 85 82 82 82 83 84 83 84 84 84 75 75 76 75 77 82 83 81 81 81 81 78 79 81 80 82 82 83 80 78 78 75 69 68 65 66 68 69 69
84 84 85 85 84 82 80 79 80 82 82 84 84 84 80 74 74 75 79 76 78 78 79 79 79 78 75 80 81 81 81 82 80 82 78 72 74 69 70 66 65 66 67
79 81 82 83 82 83 80 77 79 82 82 84 84 84 80 74 74 74 74 77 74 75 75 76 75 77 76 78 80 78 78 79 78 78 78 79 75 72 79 77 76 73 64
76 77 78 79 81 81 83 80 80 80 81 82 84 82 82 79 76 73 72 75 74 74 75 72 71 67 72 72 73 71 70 74 75 77 78 78 74 67 75 76 76 77 73
74 75 76 78 80 83 84 85 83 82 82 82 82 81 81 79 77 76 73 73 73 72 72 68 67 65 67 69 66 64 59 63 69 73 75 75 75 68 74 75 75 75 74
71 71 74 76 78 81 82 84 84 81 79 76 73 75 79 78 78 76 77 74 69 69 68 67 66 64 62 63 70 71 58 60 65 72 68 72 72 72 75 73 69 75 78
67 71 73 74 77 80 81 79 79 78 75 75 75 72 73 76 76 74 74 74 67 66 67 67 66 65 64 62 63 69 73 73 67 62 66 66 69 70 73 69 66 69 76
56 60 71 73 75 77 78 78 78 78 78 76 71 68 68 72 74 73 74 73 70 70 66 68 67 65 64 64 62 65 68 70 74 75 69 64 64 67 71 71 67 68 74
49 50 54 60 63 64 73 77 75 73 74 74 73 66 67 68 69 71 73 74 74 70 66 65 67 65 64 64 63 64 67 67 69 72 71 71 67 67 72 72 72 71 74
MSLP
1006.57 1008.07 1009.36 1009.93 1010.55 1010.90 1011.33 1011.65 1012.02 1012.01 1011.94 1012.04 1012.32 1012.64 1012.90 1013.27 1013.66 1013.97 1014.01 1014.14 1014.33 1014.43 1014.50 1014.74 1014.90 1015.05 1015.14 1015.27 1015.33 1015.47 1015.71 1015.92 1016.14 1016.22 1016.21 1016.60 1016.04 1017.13 1016.47 1018.08 1017.47 1016.61 1016.79
1006.41 1007.80 1009.17 1009.78 1010.53 1010.96 1011.44 1011.69 1012.04 1012.22 1012.24 1012.38 1012.59 1012.85 1013.17 1013.48 1013.83 1014.13 1014.21 1014.36 1014.49 1014.60 1014.78 1014.88 1015.07 1015.26 1015.38 1015.54 1015.75 1015.86 1016.05 1016.19 1016.35 1016.52 1016.79 1016.95 1017.03 1017.27 1017.21 1017.93 1017.79 1017.31 1017.32
1006.87 1008.05 1009.25 1009.42 1010.06 1010.60 1011.05 1011.59 1012.01 1012.32 1012.41 1012.59 1012.78 1013.00 1013.34 1013.69 1013.98 1014.24 1014.35 1014.52 1014.63 1014.73 1014.87 1015.06 1015.27 1015.43 1015.68 1015.94 1016.09 1016.15 1016.28 1016.39 1016.67 1016.75 1016.77 1016.33 1017.03 1017.73 1017.39 1017.94 1018.05 1017.79 1017.88
1007.29 1008.08 1008.65 1009.60 1010.29 1011.02 1011.23 1011.73 1011.99 1012.20 1012.36 1012.54 1012.77 1013.07 1013.40 1013.76 1014.12 1014.34 1014.50 1014.69 1014.82 1014.92 1015.05 1015.25 1015.44 1015.65 1015.91 1016.14 1016.36 1016.50 1016.66 1016.80 1016.95 1016.93 1016.32 1016.42 1016.88 1017.83 1017.77 1018.10 1018.41 1018.20 1018.30
1007.74 1008.11 1008.64 1009.76 1010.23 1010.90 1011.30 1011.81 1012.22 1012.40 1012.50 1012.64 1012.92 1013.19 1013.58 1013.90 1014.18 1014.44 1014.68 1014.88 1014.98 1015.05 1015.17 1015.36 1015.61 1015.91 1016.10 1016.35 1016.62 1016.82 1016.96 1017.08 1017.11 1016.61 1015.54 1016.14 1016.93 1017.94 1017.94 1018.27 1018.57 1018.54 1018.46
1008.10 1008.23 1009.41 1010.11 1010.81 1011.35 1011.59 1011.96 1012.38 1012.69 1012.83 1012.92 1013.15 1013.39 1013.74 1014.13 1014.34 1014.57 1014.82 1015.03 1015.16 1015.20 1015.29 1015.54 1015.90 1016.14 1016.35 1016.53 1016.77 1016.96 1017.10 1017.19 1016.86 1015.37 1015.70 1016.88 1017.07 1018.21 1018.12 1018.42 1018.51 1018.77 1019.11
1008.27 1008.68 1009.75 1010.49 1010.79 1011.31 1011.67 1012.03 1012.49 1012.89 1013.15 1013.28 1013.41 1013.51 1013.77 1014.16 1014.41 1014.64 1014.93 1015.14 1015.27 1015.39 1015.51 1015.78 1016.09 1016.31 1016.51 1016.67 1016.89 1017.11 1017.17 1017.10 1016.19 1016.19 1016.47 1017.13 1017.78 1018.17 1018.44 1018.46 1018.89 1019.18 1019.49
1008.64 1009.06 1009.84 1011.03 1011.16 1011.56 1011.95 1012.08 1012.27 1012.88 1013.40 1013.56 1013.68 1013.74 1013.87 1014.15 1014.44 1014.70 1014.98 1015.20 1015.33 1015.51 1015.75 1016.01 1016.26 1016.44 1016.60 1016.77 1016.98 1017.28 1017.32 1017.23 1016.58 1016.70 1016.67 1017.48 1018.18 1018.27 1018.69 1019.09 1019.12 1019.52 1019.72
1009.18 1009.54 1009.85 1010.76 1011.49 1011.92 1012.11 1012.16 1012.36 1012.64 1013.17 1013.62 1013.84 1013.96 1014.08 1014.28 1014.51 1014.79 1015.06 1015.28 1015.40 1015.59 1015.89 1016.15 1016.41 1016.55 1016.75 1016.94 1017.18 1017.44 1017.47 1017.26 1016.48 1016.54 1016.68 1017.50 1018.57 1018.67 1019.10 1019.30 1019.45 1019.75 1019.89
1009.40 1009.55 1009.72 1010.29 1010.99 1011.41 1011.81 1012.38 1012.42 1012.58 1012.94 1013.34 1013.79 1014.08 1014.32 1014.53 1014.75 1014.99 1015.26 1015.50 1015.55 1015.76 1016.02 1016.25 1016.52 1016.75 1016.90 1017.18 1017.34 1017.56 1017.79 1017.76 1016.49 1016.86 1016.91 1017.34 1018.63 1019.02 1019.22 1019.48 1019.72 1020.05 1020.21
1009.26 1009.38 1009.69 1010.20 1010.98 1011.23 1011.44 1011.96 1012.73 1013.02 1013.15 1013.47 1013.74 1014.14 1014.53 1014.30 1014.75 1015.06 1014.99 1015.49 1015.73 1015.91 1016.15 1016.38 1016.69 1016.98 1017.24 1017.55 1017.63 1017.74 1017.88 1016.75 1017.06 1017.44 1017.58 1018.30 1018.66 1019.00 1019.30 1019.60 1019.88 1020.29 1020.36
1008.54 1009.03 1009.46 1010.16 1010.90 1011.39 1011.76 1011.99 1012.21 1012.50 1012.99 1013.18 1013.27 1013.63 1013.76 1013.57 1014.00 1014.31 1014.88 1015.68 1015.97 1016.15 1016.41 1016.62 1016.91 1017.18 1017.33 1016.86 1017.33 1018.01 1017.06 1016.85 1017.02 1017.25 1017.10 1018.52 1018.71 1018.99 1019.31 1019.63 1020.10 1020.21 1020.61
1008.05 1008.74 1009.37 1009.90 1010.59 1011.26 1011.48 1011.91 1012.17 1011.66 1012.20 1012.58 1012.80 1012.91 1013.21 1013.18 1013.53 1013.99 1014.45 1015.31 1015.58 1016.27 1016.09 1016.62 1016.96 1016.76 1016.50 1016.03 1016.33 1016.70 1016.62 1017.05 1017.12 1017.09 1017.98 1018.57 1018.81 1019.07 1019.32 1019.60 1020.02 1020.34 1020.76
1007.64 1008.35 1009.05 1009.49 1010.02 1010.79 1010.85 1011.42 1011.80 1012.13 1012.10 1012.03 1012.33 1012.72 1013.10 1013.46 1013.24 1013.26 1013.37 1014.01 1014.62 1015.17 1015.17 1015.58 1015.75 1015.91 1016.05 1016.19 1016.25 1016.67 1016.85 1016.55 1017.05 1017.58 1018.33 1018.86 1018.85 1019.28 1019.41 1019.69 1020.18 1020.44 1020.73
1007.09 1007.60 1008.28 1008.94 1009.38 1009.99 1010.53 1010.60 1011.08 1011.54 1011.64 1011.40 1011.80 1012.61 1012.99 1012.87 1013.06 1012.85 1012.89 1013.23 1013.68 1014.15 1014.64 1014.88 1014.92 1015.42 1015.86 1015.97 1016.18 1016.53 1016.74 1016.69 1017.39 1018.34 1018.34 1018.76 1018.98 1019.25 1019.46 1019.62 1020.01 1020.31 1020.65
1006.59 1006.90 1007.55 1008.36 1008.70 1009.00 1009.64 1010.02 1010.21 1010.22 1010.59 1011.01 1011.07 1011.88 1012.34 1012.09 1012.46 1013.15 1012.82 1012.99 1013.31 1013.47 1013.76 1014.15 1014.38 1014.84 1015.29 1015.67 1016.05 1016.28 1016.44 1016.56 1017.20 1017.96 1018.50 1018.61 1018.63 1019.13 1019.38 1019.62 1019.95 1020.22 1020.52
1006.49 1006.41 1006.70 1007.58 1008.32 1008.74 1008.62 1009.01 1009.39 1009.52 1009.78 1010.04 1010.09 1011.05 1011.74 1011.98 1012.25 1012.72 1012.56 1012.77 1013.02 1013.47 1013.58 1013.75 1014.21 1014.53 1014.80 1015.39 1015.77 1015.99 1016.13 1016.52 1016.90 1017.76 1018.21 1018.57 1018.82 1019.01 1019.31 1019.47 1019.88 1020.18 1020.44
1006.69 1006.87 1006.80 1006.89 1007.59 1008.10 1008.34 1008.60 1008.59 1008.60 1008.98 1009.28 1009.53 1009.73 1011.09 1011.59 1011.78 1012.23 1012.41 1012.23 1012.46 1013.20 1013.48 1013.77 1013.99 1014.54 1014.73 1014.71 1015.23 1015.50 1015.66 1015.75 1016.43 1017.29 1017.66 1018.14 1018.55 1018.80 1019.27 1019.39 1019.58 1020.03 1020.34
1007.38 1007.17 1007.06 1007.24 1007.13 1007.53 1007.85 1008.04 1008.17 1008.27 1008.40 1008.46 1008.68 1008.88 1009.78 1010.92 1011.27 1011.50 1011.67 1012.28 1012.31 1013.00 1013.36 1013.56 1013.71 1014.02 1014.74 1014.40 1014.62 1015.06 1015.16 1015.40 1015.86 1016.25 1017.10 1017.84 1017.96 1018.42 1018.63 1018.93 1019.33 1019.75 1020.17
1008.12 1007.69 1007.41 1007.34 1007.30 1007.10 1007.52 1007.89 1007.75 1007.67 1007.91 1007.78 1007.80 1008.08 1008.76 1010.03 1010.40 1010.88 1011.32 1011.79 1012.40 1012.73 1013.07 1013.33 1013.58 1013.84 1014.19 1014.28 1014.26 1014.74 1015.06 1015.27 1015.48 1016.04 1016.57 1016.85 1017.52 1017.72 1017.47 1018.08 1018.71 1019.30 1019.85
1008.63 1008.04 1007.47 1007.02 1006.91 1006.98 1006.57 1006.63 1006.61 1006.41 1006.77 1006.97 1007.03 1007.29 1007.79 1008.53 1009.24 1009.93 1010.56 1011.10 1011.68 1012.10 1012.43 1013.11 1013.48 1014.12 1014.29 1014.66 1014.60 1014.94 1015.51 1015.39 1015.54 1015.76 1015.97 1016.24 1017.01 1017.54 1017.40 1017.63 1017.99 1018.21 1019.26
1009.03 1008.51 1007.74 1006.93 1006.23 1005.93 1005.66 1005.34 1005.52 1005.70 1006.00 1006.03 1006.32 1006.60 1007.02 1007.91 1008.36 1009.00 1009.56 1010.10 1010.86 1011.76 1012.18 1012.87 1013.43 1013.92 1014.16 1014.44 1014.41 1015.03 1015.48 1015.71 1015.51 1015.56 1015.75 1015.93 1016.27 1017.21 1017.11 1017.19 1017.44 1017.80 1018.33
1009.56 1008.86 1008.07 1007.17 1006.23 1005.46 1005.19 1004.96 1004.59 1004.97 1005.32 1005.64 1005.92 1006.28 1006.36 1007.00 1007.62 1008.15 1008.56 1009.28 1009.88 1011.47 1012.18 1012.61 1012.87 1013.35 1013.77 1014.18 1013.79 1013.56 1014.40 1013.94 1014.41 1014.68 1015.44 1015.60 1015.79 1016.10 1016.26 1016.95 1017.29 1017.21 1017.34
1010.36 1009.11 1008.11 1007.10 1005.84 1004.95 1004.56 1004.42 1004.00 1003.93 1004.13 1004.57 1005.12 1005.79 1006.17 1006.49 1006.86 1007.34 1008.07 1008.62 1008.69 1008.35 1011.37 1012.06 1012.50 1012.67 1013.27 1013.40 1013.90 1013.24 1012.68 1012.32 1012.64 1013.73 1014.91 1015.18 1015.40 1015.57 1015.66 1016.37 1016.89 1016.88 1016.83
1012.62 1010.88 1008.18 1006.91 1005.60 1004.78 1004.10 1003.69 1003.54 1003.15 1003.42 1003.91 1004.80 1005.40 1005.88 1006.11 1006.16 1006.83 1007.56 1007.88 1008.36 1008.58 1009.43 1011.23 1011.97 1011.92 1012.36 1012.57 1012.75 1012.76 1012.76 1012.47 1011.78 1011.42 1012.35 1014.21 1015.06 1015.19 1015.27 1015.57 1016.06 1016.50 1016.39
1014.38 1012.88 1010.71 1008.42 1007.01 1006.32 1004.17 1003.07 1002.93 1002.79 1003.10 1003.43 1003.96 1004.48 1004.84 1005.23 1005.42 1006.39 1006.96 1007.79 1008.11 1007.76 1008.83 1009.20 1010.05 1011.31 1011.54 1011.86 1011.99 1012.02 1011.97 1011.89 1011.35 1011.31 1011.43 1012.02 1013.39 1014.07 1014.22 1014.54 1015.01 1015.40 1015.65
Wind_Speed
11 19 19 18 14 12 10 9 8 9 12 14 14 14 14 13 12 11 11 11 11 9 12 11 10 11 10 11 11 11 16 16 16 17 18 16 18 14 17 1 4 16 17
16 21 19 19 15 13 11 10 10 9 11 13 14 14 13 13 12 11 11 11 10 11 11 11 10 11 10 11 12 13 14 14 14 15 15 13 15 16 18 6 4 13 18
17 18 19 19 18 17 15 13 12 12 13 15 14 14 14 14 13 11 11 10 10 11 12 11 11 11 11 12 13 14 14 13 12 13 11 10 12 13 18 16 6 15 17
15 18 19 18 17 16 15 14 14 14 15 16 16 16 15 14 13 12 11 10 9 10 11 11 12 12 13 12 11 11 11 10 10 10 9 9 11 13 19 18 11 15 17
14 16 17 18 18 17 15 13 12 12 13 14 15 15 15 14 13 12 11 10 10 10 11 12 12 12 11 11 11 10 10 9 9 15 11 11 11 13 19 19 14 14 14
12 14 17 13 12 12 13 12 10 10 10 12 13 14 14 13 13 12 11 10 9 10 11 12 12 11 11 12 11 10 10 9 11 7 7 9 9 14 18 16 17 16 15
11 11 13 10 12 12 13 12 10 9 9 10 12 13 14 14 13 12 11 10 9 9 11 13 13 11 11 11 11 10 10 8 10 7 7 9 11 15 16 18 16 16 16
10 10 11 10 11 11 11 11 12 10 8 9 10 12 13 13 13 12 11 10 10 11 11 12 12 12 11 11 11 10 8 7 7 5 8 7 13 16 16 16 15 15 16
8 9 10 12 11 7 8 10 11 11 11 9 9 10 11 11 11 11 11 11 11 11 12 13 12 12 11 11 10 9 7 6 6 6 5 8 10 15 15 15 16 15 15
9 10 11 11 12 13 12 8 10 11 12 11 9 8 8 9 9 9 9 10 10 11 12 13 12 11 11 10 9 6 5 3 5 7 5 9 13 14 16 16 16 15 14
10 11 11 11 10 11 11 11 8 7 9 9 9 7 8 11 13 13 10 12 10 10 11 12 12 10 9 7 7 8 10 6 6 3 4 12 14 16 17 16 14 14 14
14 14 12 13 12 11 9 9 12 12 11 12 13 14 11 12 12 12 10 9 9 9 9 10 11 9 10 9 7 6 7 7 5 5 3 10 13 17 19 17 15 15 14
14 12 13 13 12 12 10 8 6 7 9 10 14 13 14 9 10 9 8 8 9 9 8 10 10 10 12 8 8 8 6 6 4 5 5 10 11 16 19 17 15 15 15
13 14 14 15 14 13 9 9 8 7 8 9 11 12 9 8 10 11 9 11 10 9 10 11 9 11 11 10 8 8 8 7 4 2 4 4 9 11 16 16 17 17 16
12 16 17 16 15 13 13 10 11 11 11 12 12 13 12 12 10 11 11 11 11 11 10 10 10 10 10 11 10 10 9 8 7 3 3 9 10 12 14 17 18 18 17
11 14 16 17 17 16 15 14 12 12 13 13 12 12 14 12 10 12 11 11 11 11 11 11 10 10 10 9 10 10 9 8 8 9 4 5 8 7 14 15 17 17 18
11 11 15 17 17 17 19 17 14 12 13 13 13 16 14 14 12 14 11 11 11 10 12 11 11 10 10 9 10 10 9 9 9 8 7 4 5 3 7 13 16 15 17
9 8 10 10 15 17 16 14 13 14 14 13 13 12 15 15 13 11 10 12 12 11 11 10 11 10 11 10 10 9 9 9 11 11 9 7 5 5 8 10 14 13 15
14 12 8 7 12 16 16 12 14 14 14 14 13 13 17 15 15 12 12 9 9 10 11 11 11 11 10 11 10 9 9 9 10 10 9 9 10 7 8 13 11 13 14
17 15 12 8 10 12 12 11 10 13 13 14 14 14 17 13 17 14 10 13 10 10 9 10 12 11 10 10 10 9 9 8 7 9 10 9 9 10 13 13 12 11 13
17 18 17 15 12 9 11 11 12 14 14 14 14 18 19 17 20 16 11 13 12 13 13 11 9 11 10 9 8 6 5 7 8 9 9 10 9 5 11 11 10 8 10
20 19 19 18 18 13 10 11 12 12 13 13 13 14 18 19 19 17 14 11 11 10 11 10 10 6 7 11 8 6 5 6 8 10 9 10 12 7 10 14 14 13 12
25 23 21 21 20 17 16 13 12 12 11 11 10 12 16 20 18 18 19 12 11 7 7 10 11 12 8 8 14 7 4 7 7 10 13 11 12 11 11 12 10 14 13
28 25 24 22 21 18 17 15 19 14 15 14 14 11 13 17 19 17 19 17 14 13 11 8 9 11 9 11 7 11 8 6 8 6 7 10 10 12 13 9 8 10 13
28 31 22 21 19 19 18 18 16 19 14 10 9 12 14 15 16 16 18 18 13 11 12 12 11 13 11 8 9 7 12 8 9 8 7 7 8 9 12 12 10 11 15
23 27 27 23 11 14 18 17 18 17 17 13 14 10 11 10 10 14 15 15 15 12 15 10 11 14 13 11 9 10 10 11 12 11 10 10 11 11 13 11 15 12 11
Wind_Direction
171 143 153 151 153 153 158 147 145 141 144 146 145 143 139 140 140 138 132 133 132 126 136 144 137 139 133 137 117 115 114 112 107 106 110 116 112 124 107 177 203 105 109
158 158 152 147 153 153 160 149 144 140 141 143 142 138 138 137 137 139 134 132 136 131 131 135 134 138 127 117 105 106 112 117 125 127 127 129 135 127 123 126 104 111 102
158 153 160 150 159 163 161 153 150 149 145 143 140 137 138 140 141 140 138 136 141 142 135 132 133 136 126 117 113 116 120 124 124 121 153 139 133 146 127 134 151 115 110
157 159 165 158 158 163 159 159 157 156 152 147 145 144 144 142 143 144 143 141 141 145 149 145 136 131 127 119 117 115 114 120 129 143 173 145 135 150 142 139 131 114 107
171 168 160 162 160 163 159 160 160 158 154 148 145 146 145 145 147 150 147 146 145 143 145 148 142 134 125 118 117 116 121 127 168 200 136 146 139 142 130 122 126 121 110
181 173 136 150 151 155 156 158 158 157 151 146 148 149 147 149 150 152 152 152 150 151 147 141 138 130 126 126 125 123 124 148 201 170 129 94 133 136 131 130 117 106 110
182 178 151 148 149 158 161 158 154 161 160 156 155 152 151 154 154 155 157 156 157 149 140 138 139 136 138 135 131 131 138 178 232 119 133 134 130 130 123 117 116 117 116
188 175 158 154 149 157 165 161 157 164 170 167 165 159 156 155 156 160 160 160 160 143 139 138 142 142 144 139 133 136 145 215 168 154 125 129 127 125 124 129 121 124 122
195 179 164 176 173 163 173 168 165 164 171 177 174 168 161 156 158 161 160 158 158 148 142 143 146 148 148 142 138 145 155 211 165 159 159 136 134 134 135 132 126 124 119
183 183 174 178 187 191 190 185 176 171 174 173 175 171 162 152 158 160 155 159 160 155 150 149 152 155 151 147 148 144 129 219 225 151 171 103 144 145 145 141 137 131 121
191 183 178 174 189 200 208 187 186 181 172 167 169 147 161 189 180 167 183 150 166 164 154 153 157 157 136 133 134 152 174 199 172 143 197 137 151 158 154 149 144 140 133
202 190 187 178 189 195 197 206 207 197 203 200 195 185 201 200 187 188 153 156 166 167 156 157 157 145 182 170 171 171 207 198 201 185 163 155 162 168 162 157 152 146 147
219 204 195 183 185 195 196 194 207 204 198 202 203 198 204 195 187 196 169 174 177 182 183 178 168 194 202 195 178 189 196 181 214 203 136 172 180 173 164 161 159 159 157
220 215 203 196 188 192 196 195 194 194 214 203 212 209 199 194 198 191 187 182 187 182 189 194 189 204 197 207 193 197 213 218 146 151 166 191 159 185 169 166 171 167 163
230 218 211 197 195 190 204 196 199 202 205 210 202 205 212 207 200 204 194 189 190 183 189 195 199 197 203 204 202 207 208 213 188 163 155 182 182 179 183 180 179 172 173
254 235 214 209 201 190 199 207 203 203 202 215 206 208 207 215 202 218 201 200 197 192 190 195 198 195 202 206 204 212 219 198 198 176 176 189 191 212 181 189 185 181 179
298 273 233 213 214 209 203 200 205 210 211 209 213 201 208 208 206 212 214 206 201 200 199 198 195 202 197 201 213 205 213 212 197 175 182 181 192 188 220 195 187 190 181
317 311 286 239 217 219 220 215 214 209 207 213 214 208 201 209 208 206 210 217 201 201 196 203 199 179 216 201 206 213 211 213 199 202 199 184 174 175 216 202 194 185 187
340 323 303 274 238 225 221 223 220 226 218 213 214 211 200 206 200 201 214 211 211 201 205 204 203 198 210 207 207 212 214 219 198 202 196 199 186 184 214 176 188 181 189
340 333 323 290 268 242 237 232 234 224 227 226 217 216 195 200 200 201 204 206 205 209 201 206 209 207 201 210 212 207 213 219 216 216 205 206 212 221 215 196 185 188 184
334 327 324 314 297 264 243 231 226 228 222 223 222 216 208 202 203 197 199 205 197 206 208 197 198 180 207 202 207 216 235 223 216 222 213 209 207 225 227 208 198 198 185
329 322 318 310 305 288 259 241 235 231 235 232 225 213 211 208 203 204 200 199 196 213 215 192 188 184 197 189 184 167 201 208 222 224 220 222 210 199 221 214 205 196 187
327 319 310 304 296 286 276 266 240 235 239 226 221 216 212 208 209 203 205 190 174 188 212 194 196 196 197 204 201 177 166 217 192 206 211 218 218 212 211 210 216 209 205
330 313 304 298 291 283 273 258 251 232 227 223 219 211 213 209 208 199 201 196 166 152 231 214 202 203 203 210 210 226 227 217 201 157 221 218 210 213 210 195 200 224 209
347 343 312 291 282 278 271 255 249 232 235 215 206 206 210 212 210 204 203 194 191 176 179 212 218 206 208 207 207 201 230 235 240 247 186 195 204 214 207 208 195 207 213
354 346 340 340 339 321 283 261 244 235 224 213 209 205 198 205 198 202 201 215 207 179 188 187 215 215 211 213 203 214 215 216 222 224 230 190 203 209 216 203 204 210 209